DW5444 Weather Reports


time (UTC)temp
F
wind
direction
speed
knots
gust
knots
rain 1hr
in
rain 24hr
in
rain mn
in
humidity
%
barometer
mb
20260508041514 57 222 4.3 8.7 0.00 0.00 0.00 24 1013.7
20260508040011 56 242 2.6 4.3 0.00 0.00 0.00 26 1013.6
20260508034511 56 199 0.9 4.3 0.00 0.00 0.00 28 1013.4
20260508033014 57 209 1.7 5.2 0.00 0.00 0.00 26 1013.2
20260508031511 58 229 2.6 5.2 0.00 0.00 0.00 26 1013.1
20260508030007 59 205 1.7 6.1 0.00 0.00 0.00 29 1013.1
20260508024508 59 239 2.6 4.3 0.00 0.00 0.00 35 1013.0
20260508023008 59 230 2.6 4.3 0.00 0.00 0.00 37 1012.9
20260508021505 59 195 1.7 2.6 0.00 0.00 0.00 41 1012.8
20260508020006 61 156 0.0 0.9 0.00 0.00 0.00 40 1012.8
20260508014506 62 233 0.0 1.7 0.00 0.00 0.00 37 1012.8
20260508013005 63 246 1.7 2.6 0.00 0.00 0.00 35 1012.8
20260508011504 63 236 1.7 2.6 0.00 0.00 0.00 32 1012.9
20260508010007 63 254 2.6 6.1 0.00 0.00 0.00 31 1012.9
20260508004505 65 264 4.3 7.0 0.00 0.00 0.00 30 1012.9
20260508003001 66 265 4.3 10.4 0.00 0.00 0.00 29 1012.9
20260508001505 68 258 5.2 10.4 0.00 0.00 0.00 26 1012.8
20260508000100 68 248 7.0 10.4 0.00 0.00 0.00 24 1012.9
20260507234603 68 257 7.0 11.3 0.00 0.00 0.00 24 1012.9
20260507233057 67 253 7.0 12.2 0.00 0.00 0.00 25 1013.1
20260507231555 68 229 7.0 11.3 0.00 0.00 0.00 26 1013.0
20260507230054 68 268 8.7 13.9 0.00 0.00 0.00 23 1013.2
20260507224552 68 270 7.0 11.3 0.00 0.00 0.00 32 1013.3
20260507223050 68 244 7.0 10.4 0.00 0.00 0.00 30 1013.4
20260507221549 68 281 7.0 12.2 0.00 0.00 0.00 36 1013.5
20260507220046 67 267 6.1 10.4 0.00 0.00 0.00 37 1013.7
20260507214549 67 288 4.3 10.4 0.00 0.00 0.00 33 1013.8
20260507213047 67 279 6.1 11.3 0.00 0.00 0.00 34 1013.8
20260507211545 67 282 6.1 9.6 0.00 0.00 0.00 37 1013.9
20260507210041 67 275 8.7 13.0 0.00 0.00 0.00 36 1014.0
20260507204540 66 277 5.2 10.4 0.00 0.00 0.00 35 1014.1
20260507203039 66 281 3.5 10.4 0.00 0.00 0.00 38 1014.2
20260507201536 65 265 5.2 10.4 0.00 0.00 0.00 40 1014.3
20260507200035 65 246 3.5 9.6 0.00 0.00 0.00 45 1014.3
20260507194533 65 272 6.1 13.9 0.00 0.00 0.00 40 1014.4
20260507193035 64 288 7.0 12.2 0.00 0.00 0.00 41 1014.4
20260507191529 64 284 4.3 12.2 0.00 0.00 0.00 44 1014.6
20260507190027 63 287 7.0 10.4 0.00 0.00 0.00 43 1014.6
20260507184525 63 278 5.2 11.3 0.00 0.00 0.00 40 1014.7
20260507183035 62 226 5.2 13.9 0.00 0.00 0.00 45 1014.9
20260507181519 61 289 7.0 12.2 0.00 0.00 0.00 49 1014.8
20260507180019 60 270 7.8 13.9 0.00 0.00 0.00 50 1014.9
20260507174518 60 278 8.7 13.9 0.00 0.00 0.00 47 1014.8
20260507173014 59 281 9.6 13.9 0.00 0.00 0.00 47 1015.0
20260507171512 59 276 9.6 13.0 0.00 0.00 0.00 47 1014.8
20260507170010 58 238 8.7 16.5 0.00 0.00 0.00 52 1014.9
20260507164509 58 257 8.7 13.9 0.00 0.00 0.00 54 1014.8
20260507163007 58 272 8.7 13.9 0.00 0.00 0.00 55 1015.0
20260507161505 57 249 9.6 14.8 0.00 0.00 0.00 54 1014.7
20260507160007 57 280 7.0 12.2 0.00 0.00 0.00 58 1014.7
20260507154502 56 250 7.8 12.2 0.00 0.00 0.00 59 1014.8
20260507153104 55 251 7.8 12.2 0.00 0.00 0.00 61 1015.0
20260507151555 55 264 7.0 12.2 0.00 0.00 0.00 65 1015.0
20260507150054 54 254 4.3 7.8 0.00 0.00 0.00 68 1015.1
20260507144554 54 243 5.2 8.7 0.00 0.00 0.00 67 1015.0
20260507143051 53 254 1.7 5.2 0.00 0.00 0.00 70 1014.9
20260507141550 51 211 4.3 6.1 0.00 0.00 0.00 71 1014.6
20260507134550 50 239 2.6 4.3 0.00 0.00 0.00 72 1014.5
20260507133047 50 225 2.6 5.2 0.00 0.00 0.00 71 1014.4
20260507131547 50 263 5.2 10.4 0.00 0.00 0.00 68 1014.4
20260507130058 50 216 4.3 9.6 0.00 0.00 0.00 67 1014.3
20260507124559 51 236 6.1 11.3 0.00 0.00 0.00 66 1014.1
20260507123042 51 239 7.0 9.6 0.00 0.00 0.00 66 1013.8
20260507121539 50 217 4.3 7.8 0.00 0.00 0.00 66 1013.8
20260507120038 51 216 3.5 8.7 0.00 0.00 0.00 65 1013.8
20260507114539 51 204 3.5 7.8 0.00 0.00 0.00 66 1013.7
20260507113035 51 230 5.2 12.2 0.00 0.00 0.00 66 1014.0
20260507111531 51 189 4.3 7.8 0.00 0.00 0.00 65 1014.0
20260507110033 52 241 5.2 8.7 0.00 0.00 0.00 64 1014.1
20260507104528 52 213 4.3 7.8 0.00 0.00 0.00 64 1014.1
20260507103025 52 176 3.5 9.6 0.00 0.00 0.00 63 1014.2
20260507101525 53 215 2.6 7.8 0.00 0.00 0.00 62 1014.4
20260507100025 53 209 5.2 9.6 0.00 0.00 0.00 61 1014.3
20260507094520 53 223 2.6 7.8 0.00 0.00 0.00 62 1014.4
20260507093026 53 170 1.7 6.1 0.00 0.00 0.00 62 1014.5
20260507091531 54 244 4.3 9.6 0.00 0.00 0.00 60 1014.5
20260507090017 54 229 4.3 8.7 0.00 0.00 0.00 59 1014.4
20260507084520 54 213 4.3 9.6 0.00 0.00 0.00 59 1014.5
20260507083014 52 198 1.7 4.3 0.00 0.00 0.00 61 1014.7
20260507081512 53 96 1.7 7.8 0.00 0.00 0.00 57 1014.8
20260507080011 54 263 5.2 11.3 0.00 0.00 0.00 56 1014.3
20260507074507 53 205 5.2 10.4 0.00 0.00 0.00 57 1014.5
20260507073005 52 170 2.6 6.1 0.00 0.00 0.00 59 1014.7
20260507071503 53 176 1.7 4.3 0.00 0.00 0.00 57 1014.8
20260507070115 53 175 2.6 4.3 0.00 0.00 0.00 56 1014.9
20260507064610 52 156 1.7 3.5 0.00 0.00 0.00 57 1014.7
20260507063100 54 154 2.6 3.5 0.00 0.00 0.00 55 1014.7
20260507061556 55 216 1.7 5.2 0.00 0.00 0.00 53 1014.8
20260507060054 56 244 3.5 6.1 0.00 0.00 0.00 52 1014.7
20260507054555 56 236 2.6 7.0 0.00 0.00 0.00 52 1014.6
20260507053053 57 230 4.3 10.4 0.00 0.00 0.00 51 1014.6
20260507051555 57 206 3.5 7.8 0.00 0.00 0.00 51 1014.5
20260507050051 58 263 6.1 10.4 0.00 0.00 0.00 48 1014.5
20260507044553 59 225 7.0 12.2 0.00 0.00 0.00 48 1014.5
20260507043050 60 261 5.2 11.3 0.00 0.00 0.00 47 1014.6